Tracking 33198 objects as of 14-Feb-2026
HD Live streaming from Space Station
objects crossing your sky now

STARLINK-32766

Track STARLINK-32766 now!
10-day predictions
STARLINK-32766 is classified as:


NORAD ID: 62574
Int'l Code: 2025-006W
Perigee: 489.1 km
Apogee: 491.3 km
Inclination: 43.0 °
Period: 94.3 minutes
Semi major axis: 6861 km
RCS: Unknown
Launch date: January 10, 2025
Source: United States (US)
Launch site: AIR FORCE EASTERN TEST RANGE (AFETR)
Your satellite tracking list
Your tracking list is empty




NASA's NSSDC Master Catalog

Two Line Element Set (TLE):
1 62574U 25006W   26044.43656192  .00031162  00000-0  11369-2 0  9994
2 62574  43.0025  69.5233 0001597 271.8155  88.2513 15.27586905 61157
Source of the keplerian elements: AFSPC